Wahoo, NE

2:27 PM CST on February 24, 2018 (GMT -0600)
Wahoo Municipal

Weather History for KAHQ - January, 2012

Change the Weather History Date:

Thursday, January 26, 2012

  Actual Average Record
Temperature  
Mean Temperature 35 °F -  
Max Temperature 47 °F 32 °F 59 °F (2015)
Min Temperature 23 °F 11 °F -11 °F (1991)
Degree Days  
Heating Degree Days 30    
Moisture  
Dew Point 27 °F    
Average Humidity 67    
Maximum Humidity 96    
Minimum Humidity 45    
Precipitation  
Precipitation 0.00 in - - ()
Sea Level Pressure  
Sea Level Pressure 29.90 in    
Wind  
Wind Speed 11 mph (WNW)    
Max Wind Speed 25 mph    
Max Gust Speed 33 mph    
Visibility 10 miles    
Events      
Averages and records for this station are not official NWS values.
T = Trace of Precipitation, MM = Missing Value Source: NWS Daily Summary

Daily Weather History Graph

Daily Weather History Graph

Search for Another Location

Airport or City:

Trip Planner

Search our weather history database for the weather conditions in past years. The results will help you decide how hot, cold, wet, or windy it might be!

Date:

Astronomy

Jan. 26, 2012 Rise Set
Actual Time 7:43 AM CST 5:34 PM CST
Civil Twilight 7:13 AM CST 6:04 PM CST
Nautical Twilight 6:40 AM CST 6:37 PM CST
Astronomical Twilight 6:07 AM CST 7:10 PM CST
Moon 9:08 AM CST (1/26) 9:31 PM CST (1/26)
Length of Visible Light 10h 50m
Length of Day
9h 51m
Waxing Crescent, 12% of the Moon is Illuminated
Jan 26
Waxing Crescent
Jan 30
First Quarter
Feb 7
Full
Feb 14
Last Quarter
Feb 21
New

Hourly Weather History & Observations

Time (CST) Temp. Windchill Dew Point Humidity Pressure Visibility Wind Dir Wind Speed Gust Speed Precip Events Conditions
12:15 AM 23.9 °F 18.0 °F 23.0 °F 96% 29.90 in 3.0 mi South 4.6 mph - N/A   Clear
12:35 AM 23.5 °F 15.4 °F 22.3 °F 95% 29.89 in 5.0 mi South 6.9 mph - N/A   Clear
12:55 AM 23.2 °F 18.7 °F 22.3 °F 96% 29.89 in 4.0 mi SW 3.5 mph - N/A   Clear
1:15 AM 23.2 °F 17.2 °F 22.1 °F 96% 29.89 in 4.0 mi SSW 4.6 mph - N/A   Clear
1:35 AM 24.6 °F 18.8 °F 23.5 °F 96% 29.89 in 7.0 mi SW 4.6 mph - N/A   Clear
1:55 AM 26.6 °F 21.2 °F 25.7 °F 96% 29.89 in 10.0 mi SSW 4.6 mph - N/A   Clear
2:15 AM 28.4 °F - 27.3 °F 96% 29.91 in 10.0 mi Calm Calm - N/A   Clear
2:35 AM 28.2 °F 21.0 °F 26.6 °F 94% 29.91 in 10.0 mi WSW 6.9 mph - N/A   Clear
2:55 AM 27.9 °F 20.6 °F 25.9 °F 92% 29.90 in 10.0 mi WSW 6.9 mph - N/A   Clear
3:15 AM 28.4 °F 19.7 °F 25.9 °F 90% 29.90 in 10.0 mi WSW 9.2 mph - N/A   Clear
3:35 AM 28.2 °F 23.1 °F 24.8 °F 87% 29.90 in 10.0 mi WSW 4.6 mph - N/A   Clear
3:55 AM 27.5 °F 23.6 °F 24.3 °F 88% 29.90 in 10.0 mi WSW 3.5 mph - N/A   Clear
4:15 AM 27.7 °F 19.6 °F 24.4 °F 88% 29.89 in 10.0 mi WSW 8.1 mph - N/A   Clear
4:35 AM 26.4 °F 20.9 °F 23.2 °F 88% 29.89 in 10.0 mi WSW 4.6 mph - N/A   Clear
4:55 AM 25.7 °F 20.1 °F 22.5 °F 88% 29.89 in 10.0 mi WSW 4.6 mph - N/A   Clear
5:15 AM 25.3 °F 19.7 °F 22.1 °F 87% 29.89 in 10.0 mi SSW 4.6 mph - N/A   Clear
5:35 AM 24.1 °F 18.2 °F 21.4 °F 89% 29.91 in 10.0 mi SSW 4.6 mph - N/A   Clear
5:55 AM 29.3 °F 23.2 °F 24.8 °F 83% 29.91 in 10.0 mi NW 5.8 mph - N/A   Scattered Clouds
6:15 AM 37.4 °F 29.3 °F 31.5 °F 79% 29.90 in 10.0 mi NW 12.7 mph - N/A   Scattered Clouds
6:35 AM 40.5 °F 32.1 °F 33.3 °F 75% 29.89 in 10.0 mi NW 16.1 mph 19.6 mph N/A   Mostly Cloudy
6:55 AM 43.5 °F 35.5 °F 32.9 °F 66% 29.90 in 10.0 mi NW 18.4 mph 24.2 mph N/A   Overcast
7:15 AM 41.7 °F 34.8 °F 33.3 °F 72% 29.91 in 10.0 mi NW 12.7 mph - N/A   Overcast
7:35 AM 40.3 °F 31.9 °F 32.0 °F 72% 29.90 in 10.0 mi WNW 16.1 mph - N/A   Scattered Clouds
7:55 AM 40.5 °F 31.8 °F 31.8 °F 71% 29.92 in 10.0 mi WNW 17.3 mph 24.2 mph N/A   Clear
8:15 AM 39.6 °F 31.3 °F 30.4 °F 70% 29.92 in 10.0 mi WNW 15.0 mph - N/A   Clear
8:35 AM 40.1 °F 32.7 °F 30.2 °F 68% 29.92 in 10.0 mi WNW 12.7 mph - N/A   Clear
8:55 AM 40.8 °F 33.3 °F 29.7 °F 64% 29.92 in 10.0 mi WNW 13.8 mph 18.4 mph N/A   Clear
9:15 AM 42.1 °F 34.2 °F 28.6 °F 59% 29.92 in 10.0 mi WNW 16.1 mph 21.9 mph N/A   Clear
9:35 AM 42.8 °F 35.1 °F 28.2 °F 56% 29.92 in 10.0 mi WNW 16.1 mph 20.7 mph N/A   Clear
9:55 AM 44.1 °F 36.5 °F 27.3 °F 52% 29.92 in 10.0 mi WNW 17.3 mph 24.2 mph N/A   Clear
10:15 AM 44.8 °F 36.9 °F 26.2 °F 48% 29.92 in 10.0 mi NW 19.6 mph 29.9 mph N/A   Scattered Clouds
10:35 AM 45.0 °F 37.1 °F 25.7 °F 47% 29.92 in 10.0 mi NW 19.6 mph 29.9 mph N/A   Mostly Cloudy
10:55 AM 45.7 °F 36.9 °F 26.2 °F 47% 29.91 in 10.0 mi NW 25.3 mph 32.2 mph N/A   Scattered Clouds
11:15 AM 46.2 °F 37.7 °F 26.2 °F 46% 29.91 in 10.0 mi NW 25.3 mph 32.2 mph N/A   Clear
11:35 AM 46.6 °F - 26.8 °F 46% 29.91 in 10.0 mi NW 20.7 mph 29.9 mph N/A   Clear
11:55 AM 47.7 °F - 27.7 °F 46% 29.90 in 10.0 mi NW 24.2 mph 28.8 mph N/A   Scattered Clouds
12:15 PM 46.9 °F - 27.5 °F 47% 29.89 in 10.0 mi NW 25.3 mph 31.1 mph N/A   Scattered Clouds
12:35 PM 47.3 °F - 28.0 °F 47% 29.88 in 10.0 mi NW 20.7 mph 29.9 mph N/A   Clear
12:55 PM 47.5 °F - 28.4 °F 48% 29.87 in 10.0 mi NNW 21.9 mph 33.4 mph N/A   Clear
1:15 PM 47.3 °F - 28.4 °F 48% 29.86 in 10.0 mi NW 21.9 mph 27.6 mph N/A   Clear
1:35 PM 47.7 °F - 28.4 °F 47% 29.86 in 10.0 mi NNW 21.9 mph 32.2 mph N/A   Clear
1:55 PM 47.8 °F - 28.2 °F 47% 29.86 in 10.0 mi NW 25.3 mph 32.2 mph N/A   Clear
2:15 PM 47.8 °F - 27.3 °F 45% 29.86 in 10.0 mi NW 20.7 mph 27.6 mph N/A   Clear
2:35 PM 47.7 °F - 27.7 °F 46% 29.86 in 10.0 mi NNW 25.3 mph 29.9 mph N/A   Clear
2:55 PM 46.6 °F - 27.7 °F 48% 29.87 in 10.0 mi NNW 19.6 mph 28.8 mph N/A   Clear
3:15 PM 46.6 °F - 28.0 °F 49% 29.88 in 10.0 mi NW 15.0 mph 27.6 mph N/A   Clear
3:35 PM 45.9 °F 37.6 °F 27.9 °F 49% 29.88 in 10.0 mi NNW 23.0 mph 27.6 mph N/A   Clear
3:55 PM 45.5 °F 37.6 °F 27.5 °F 49% 29.88 in 10.0 mi NNW 20.7 mph 28.8 mph N/A   Clear
4:15 PM 44.6 °F 37.4 °F 27.7 °F 52% 29.88 in 10.0 mi NNW 16.1 mph - N/A   Clear
4:35 PM 44.2 °F 38.0 °F 27.9 °F 53% 29.88 in 10.0 mi NNW 12.7 mph - N/A   Clear
4:55 PM 43.2 °F 36.6 °F 26.6 °F 52% 29.89 in 10.0 mi NNW 12.7 mph - N/A   Clear
5:15 PM 41.4 °F 34.3 °F 25.3 °F 53% 29.89 in 10.0 mi NNW 12.7 mph - N/A   Clear
5:35 PM 39.2 °F 33.0 °F 24.6 °F 56% 29.91 in 10.0 mi NNW 9.2 mph - N/A   Clear
5:55 PM 37.0 °F 31.0 °F 23.7 °F 59% 29.91 in 10.0 mi NNW 8.1 mph - N/A   Clear
6:15 PM 33.3 °F 27.1 °F 22.8 °F 66% 29.91 in 10.0 mi NW 6.9 mph - N/A   Clear
6:35 PM 34.0 °F 28.0 °F 23.0 °F 64% 29.91 in 10.0 mi NW 6.9 mph - N/A   Clear
6:55 PM 32.0 °F 24.8 °F 22.3 °F 67% 29.92 in 10.0 mi NW 8.1 mph - N/A   Clear
7:15 PM 32.0 °F 25.6 °F 22.3 °F 67% 29.92 in 10.0 mi NW 6.9 mph - N/A   Clear
7:35 PM 31.5 °F 25.8 °F 22.5 °F 69% 29.91 in 10.0 mi WNW 5.8 mph - N/A   Clear
7:55 PM 32.7 °F 26.4 °F 23.0 °F 67% 29.91 in 10.0 mi WNW 6.9 mph - N/A   Clear
8:35 PM 30.9 °F 23.5 °F 21.6 °F 68% 29.91 in 10.0 mi NW 8.1 mph - N/A   Clear
8:55 PM 23.4 °F 16.2 °F 16.3 °F 75% 29.90 in 10.0 mi North 5.8 mph - N/A   Clear
9:15 PM 20.1 °F 15.2 °F 15.8 °F 83% 29.90 in 10.0 mi North 3.5 mph - N/A   Clear
9:35 PM 20.3 °F - 16.2 °F 84% 29.91 in 10.0 mi Calm Calm - N/A   Clear
9:55 PM 20.5 °F 15.6 °F 15.6 °F 81% 29.89 in 10.0 mi North 3.5 mph - N/A   Clear
10:15 PM 19.8 °F 14.7 °F 15.6 °F 84% 29.89 in 10.0 mi North 3.5 mph - N/A   Clear
10:35 PM 20.7 °F 13.0 °F 17.6 °F 88% 29.90 in 10.0 mi West 5.8 mph - N/A   Clear
10:55 PM 24.1 °F 19.7 °F 21.6 °F 90% 29.90 in 10.0 mi West 3.5 mph - N/A   Clear
11:15 PM 24.6 °F 20.3 °F 20.3 °F 84% 29.91 in 10.0 mi West 3.5 mph - N/A   Clear
11:35 PM 26.2 °F - 21.9 °F 84% 29.90 in 10.0 mi Calm Calm - N/A   Clear
11:55 PM 24.8 °F - 21.0 °F 86% 29.89 in 10.0 mi Calm Calm - N/A   Clear